Flag for Afghanistan Weather past 2 weeks in Ghazni, Afghanistan

Now
55 °F

Thunderstorms. Partly sunny.


Feels Like: 52 °F
Forecast: 17 / 40 °F
Wind: 12 mph from Northwest

Location: Peshawar Airport

Current Time: Mar 3, 2015 at 5:15:27 PM

Latest Report: Mar 3, 2015 at 4:30 PM


Visibility: 2 mi

Pressure: 29.98 "Hg

Humidity: 82%

Dew point: 50 °F

Location of GhazniLocation

Historic Weather in Ghazni — Graph

°F

Ghazni temperature yesterday

Maximum temperature yesterday: 57 °F (at 3:30 PM)
Minimum temperature yesterday: 48 °F (at 1:30 AM)
Average temperature yesterday: 52 °F

Past Weeks' High & Low Weather Summary

 TemperatureHumidityPressure
High77 °F (Feb 22, 1:30 PM)100% (Feb 23, 10:30 AM)30.15 "Hg (Feb 23, 10:30 AM)
Low46 °F (Feb 17, 5:30 AM)31% (Feb 27, 2:30 PM)29.56 "Hg (Feb 25, 11:30 PM)
Average59 °F72%29.96 "Hg
* Reported Feb 16 4:30 PM — Mar 3 4:30 PM, Ghazni, Weather by CustomWeather, © 2015

Note: Actual official high and low records may vary slightly from our data, if they occured in-between our weather recording intervals... More about our weather records

Advertising

Ghazni weather history for previous 24 hours

 ConditionsComfort  
Time TempWeatherWind HumidityBarometerVisibility
4:30 PM
Tue, Mar 3
55 °FThunderstorms. Partly sunny.12 mph82%29.98 "Hg2 mi
3:30 PM59 °FRain. Partly sunny.14 mph72%29.98 "Hg2 mi
2:30 PM61 °FCool.N/A72%29.98 "HgN/A
1:30 PM59 °FPartly sunny.7 mph68%30.01 "Hg2 mi
12:30 PM50 °FFog.7 mph82%30.04 "Hg2 mi
11:30 AM57 °FFog.5 mph88%30.04 "Hg2 mi
10:30 AM55 °FFog.5 mph88%30.07 "Hg2 mi
9:30 AM55 °FFog.5 mph88%30.07 "Hg2 mi
8:30 AM54 °FFog.No wind88%30.04 "Hg2 mi
7:30 AM52 °FFog.5 mph88%30.01 "Hg2 mi
6:30 AM52 °FFog.5 mph88%30.01 "Hg2 mi
5:30 AM52 °FFog.No wind88%29.98 "Hg2 mi
4:30 AM52 °FThundershowers. Partly cloudy.No wind88%29.98 "Hg2 mi
3:30 AM52 °FThundershowers. Partly cloudy.No wind88%29.98 "Hg2 mi
2:30 AM52 °FThundershowers. Partly cloudy.No wind88%29.98 "Hg2 mi
1:30 AM54 °FThundershowers. Partly cloudy.No wind88%29.98 "Hg2 mi
12:30 AM54 °FThundershowers. Partly cloudy.No wind88%29.98 "Hg2 mi
11:30 PM
Mon, Mar 2
54 °FPartly cloudy.No wind88%30.01 "Hg2 mi
10:30 PM54 °FThundershowers. Partly cloudy.No wind88%30.01 "Hg2 mi
8:30 PM54 °FThundershowers. Partly cloudy.5 mph88%29.98 "Hg2 mi
7:30 PM55 °FThundershowers. Partly cloudy.5 mph82%29.95 "Hg2 mi
6:30 PM55 °FFog.No wind82%29.92 "Hg2 mi
5:30 PM55 °FFog.No wind88%29.92 "Hg2 mi
Weather by CustomWeather, © 2015

See weather overviewHow to use our weather pages